User: anonymous   Login
Location: D�derode
(51.8092°N, 10.1065°E)
Time: 07:19:42
(UTC+00:00)
Language:

USA 281 - Orbit

View from above orbital plane
View from above orbital plane
View from above satellite
View from above satellite

Ground track
Ground track

The orbit data is extracted from the following two-line orbital elements,

1 43145U 18005A   21057.83973574 0.00000000  00000-0  00000-0 0    05
2 43145 105.9931 148.8462 0009491 155.6758 204.3242 13.48014649    07
Epoch (UTC): 26 February 2021 20:09:13
Eccentricity: 0.0009491
inclination: 105.9931°
perigee height: 1072 km
apogee height: 1086 km
right ascension of ascending node: 148.8462°
argument of perigee: 155.6758°
revolutions per day: 13.48014649
mean anomaly at epoch: 204.3242°
orbit number at epoch: 0

The dashed part of the orbit path shows where the satellite is in the earth's shadow,  

DLR